Starlink 11472

operational
NORAD ID: 62067 Int'l Des: 2024-217 Owner: SPXS Country: US Constellation: starlink
LEOCIRCULAR

Starlink 11472について

説明を読み込み中...

リアルタイム位置

3D地球を読み込み中...

次回通過

高度履歴

Altitude vs Time

uPlot chart will show altitude changes over time

軌道要素

1 62067U 24217L 25305.49148154 .00150098 00000-0 12189-2 0 9994
2 62067 53.1567 343.5864 0001143 100.9314 259.1833 15.69761693 54968
Epoch: Nov 1, 2025 • Age: 27 hours

現在のステータス

高度 374.9 km
速度 7.68 km/s
衛星直下点 -46.17°S, 55.25°W
打ち上げ日 Nov 24, 2024
運用期間 0.9 years
タイプ internet

技術仕様

分類 Payload
質量 960.00 kg
乾燥質量 910.00 kg
総質量 960.00 kg
長さ 0.30 m
直径 4.10 m
スパン 29.00 m
形状 Box + pan
製造者 SPXS
バスタイプ Starlink V2MD
フェーズステータス In Orbit
所有者/国 SPXS/US

大規模コンステレーション

Loading constellations...